Torna al catalogo

HEBI-5

AttivoScienzaSSO
NORAD 61871·PAYLOAD·🇨🇳 China
Questo nome del satellite non è ancora stato confermato da fonti ufficiali.

Lanciato Nov 9, 2024 da Jiuquan Satellite Launch Center

Loading…

Prossimi Passaggi (prossime 24 ore)

TLE

AggiornatoSource: Space-Track

Epoca: Sep 14, 2026, 14:57 UTC

1 61871U 24203C   26257.62347032  .00007866  00000-0  30565-3 0  9992
2 61871  97.4152 326.1850 0011716  37.2558 322.9491 15.26270232102502

Traccia HEBI-5 in tempo reale con AllMySat

Download on the App Store